[[{"header":{"parameterUnit":"m.s-1","parameterCategory":1,"la1":30.2991,"la2":30.254,"lo1":-89.0895,"lo2":-89.0444,"dy":0.0017,"dx":0.0017,"nx":28,"ny":28,"refTime":"2026-02-11T09:00:00:Z","depth":0,"parameterNumber":2,"parameterNumberName":"U-component_of_WINDS"},"data":[0,0,0,0,0,0,0,0,0,0,0,0,0,0,0,0,0,0,0,0,0,0,0,0,0,0,0,0,0,0,0,0,0,0,0,0,0,0,0,0,0,0,0,0,0,0,0,0,0,0,0,0,0,0,0,0,0,0,1.5898,1.5899,0,1.5993,1.5994,1.5995,1.5966,1.5964,1.5962,1.596,1.6062,1.6066,1.6071,0,0,0,0,0,0,0,0,0,0,0,0,0,1.5695,1.5699,1.5898,1.5899,1.59,1.5993,1.5994,1.5995,1.5966,1.5964,1.5962,1.5959,1.606,1.6066,1.6071,0,0,0,0,0,0,0,0,0,0,0,0,0,1.5786,1.57,1.5898,1.5897,1.5898,1.5992,1.5994,1.5996,1.5967,1.5964,1.5961,1.5958,1.6058,1.6065,1.6072,1.6174,0,0,1.6093,1.6096,0,0,0,0,0,0,0,0,1.5781,1.5794,1.5896,1.5897,1.5898,1.5964,1.596,1.6056,1.5968,1.5941,1.596,1.5957,1.6032,1.6041,1.6065,1.6179,1.6183,1.6093,1.6098,1.61,1.6102,0,0,0,0,0,0,0,1.5775,1.5789,1.5936,1.5897,1.5899,1.5893,1.5903,1.5978,1.6002,1.5943,1.5941,1.5952,1.6032,1.6059,1.6068,1.6185,1.6093,1.6099,1.6103,1.6106,1.6387,1.639,0,0,0,0,0,0,1.5767,1.5784,1.5933,1.5938,1.5831,1.5899,1.591,1.5946,1.6001,1.6007,1.5955,1.5951,1.6049,1.606,1.6071,1.6194,1.61,1.6107,1.6111,1.6383,1.6387,1.6391,0,0,0,0,0,0,1.5763,1.5781,1.5929,1.5861,1.5879,1.5906,1.5947,1.595,1.5976,1.601,1.6015,1.5977,1.6047,1.6061,1.6148,1.6197,1.611,1.6116,1.6379,1.6384,1.6389,1.644,0,0,0,0,0,0,1.5757,1.5779,1.5818,1.5862,1.5883,1.6003,1.595,1.5954,1.5988,1.5983,1.6033,1.6038,1.6045,1.6138,1.6155,1.6205,1.6122,1.6375,1.6382,1.6387,1.6435,1.6447,1.6457,0,0,0,0,0,1.575,1.5829,1.582,1.5838,1.5931,1.6006,1.6018,1.6024,1.5992,1.6031,1.6053,1.6036,1.6189,1.6147,1.6166,1.6219,1.6372,1.638,1.6387,1.6429,1.6444,1.6457,0,0,0,0,0,0,1.5792,1.5835,1.5825,1.5921,1.596,1.6001,1.6051,1.604,1.609,1.6084,1.609,1.6101,1.619,1.6213,1.6166,1.632,1.6276,1.6287,1.6302,1.6316,1.6327,1.6319,1.6127,0,0,0,0,0,1.5812,1.5868,1.5903,1.5985,1.6004,1.6024,1.6057,1.6058,1.61,1.6116,1.6144,1.6186,1.6243,1.6281,1.6336,1.6438,1.6448,1.6483,1.6494,1.6503,1.6513,1.6568,1.6584,1.6416,1.6415,1.6415,0,0,1.5854,1.5885,1.592,1.5994,1.6024,1.6083,1.6039,1.6103,1.6147,1.6127,1.6209,1.6232,1.6279,1.6374,1.6417,1.6396,1.6562,1.6513,1.652,1.6525,1.6577,1.6593,1.6607,1.6421,1.642,1.6419,0,0,1.5961,1.599,1.606,1.6092,1.6138,1.615,1.6167,1.621,1.6224,1.6307,1.6293,1.6346,1.6445,1.6478,1.6508,1.6628,1.6615,1.6646,1.6704,1.6757,1.6771,1.6782,1.6824,1.6839,1.6656,1.6656,1.6656,0,1.6008,1.6095,1.6099,1.6164,1.6196,1.6179,1.6251,1.6282,1.6344,1.6367,1.6342,1.6465,1.6496,1.6597,1.6626,1.6652,1.6671,1.664,1.6768,1.678,1.6791,1.6831,1.6847,1.6659,1.6659,1.6658,1.6658,0,1.6151,1.6211,1.6263,1.6321,1.636,1.6428,1.6443,1.6482,1.6479,1.6495,1.658,1.6616,1.6677,1.6701,1.6701,1.6803,1.6788,1.6766,1.6721,1.681,1.6848,1.6863,1.6664,1.6663,1.6662,1.6661,0,0,1.6286,1.6345,1.6364,1.639,1.644,1.6487,1.6555,1.6613,1.6646,1.669,1.6747,1.683,1.6809,1.6843,1.6846,1.6893,1.6984,1.6865,1.6866,1.6885,1.7099,1.7114,1.7132,1.6976,1.6979,1.6981,1.7094,0,1.6396,1.6513,1.6519,1.6626,1.6682,1.6666,1.6725,1.6763,1.6779,1.683,1.6848,1.6907,1.6876,1.6896,1.6942,1.6964,1.7027,1.6956,1.7029,1.7032,1.7017,1.7152,1.7169,1.7274,1.7109,1.7112,1.7114,0,1.6541,1.6587,1.6699,1.674,1.6764,1.6816,1.687,1.6918,1.6961,1.6969,1.7007,1.7003,1.7073,1.7026,1.7123,1.7074,1.7104,1.712,1.7124,1.713,1.7077,1.7161,1.7307,1.7323,1.7137,1.7135,1.7133,0,1.6626,1.6717,1.6796,1.6819,1.6869,1.6906,1.6929,1.6968,1.7003,1.705,1.7073,1.7128,1.7159,1.7202,1.7213,1.7178,1.7309,1.7264,1.7318,1.7318,1.7346,1.7344,1.7498,1.7367,1.7367,1.7367,1.7367,0,1.6748,1.6817,1.6835,1.6883,1.696,1.6966,1.7043,1.7063,1.7098,1.7151,1.7142,1.7192,1.7204,1.7256,1.7266,1.7343,1.7358,1.7367,1.7368,1.7367,1.7365,1.7386,1.7379,1.7371,1.737,1.7369,1.7369,0,1.6857,1.6872,1.6956,1.6996,1.7008,1.7063,1.7098,1.7145,1.716,1.7226,1.7242,1.7267,1.7328,1.7343,1.7417,1.7423,1.7514,1.751,1.75,1.7499,1.7552,1.7546,1.7724,1.7747,1.7603,1.7604,1.7605,0,1.6933,1.6985,1.7031,1.7065,1.7089,1.7144,1.7179,1.7187,1.7224,1.7275,1.7316,1.7376,1.7424,1.7522,1.7547,1.7603,1.7598,1.7657,1.7607,1.7603,1.7598,1.7594,1.7599,1.7666,1.7668,1.7669,1.767,0,1.7066,1.707,1.712,1.7173,1.7215,1.7257,1.7297,1.7326,1.734,1.7382,1.7443,1.748,1.7554,1.7614,1.767,1.7694,1.7685,1.7686,1.7701,1.7699,1.7691,1.7695,1.7524,1.7681,1.768,1.7679,1.7679,1.7678,1.716,1.7205,1.7244,1.73,1.7331,1.7369,1.7414,1.7435,1.7486,1.7546,1.7548,1.7615,1.7656,1.773,1.7758,1.781,1.7793,1.7815,1.7821,1.7826,1.783,1.7683,1.7821,1.7821,1.782,1.782,1.782,0,1.7291,1.7315,1.7367,1.7423,1.7467,1.7453,1.7497,1.7535,1.7593,1.7632,1.7679,1.775,1.7807,1.7836,1.7893,1.793,1.7927,1.7944,1.7941,1.7946,1.7843,1.7823,1.7946,1.7946,1.7946,1.7946,1.7945,1.7945,1.7364,1.744,1.745,1.7541,1.7565,1.763,1.7656,1.7691,1.7721,1.78,1.7847,1.7866,1.79,1.796,1.8012,1.8019,1.804,1.806,1.8064,1.7967,1.7954,1.7942,1.7923,1.8064,1.8065,1.8163,1.8164,1.8165]},{"header":{"parameterUnit":"m.s-1","parameterCategory":1,"la1":30.2991,"la2":30.254,"lo1":-89.0895,"lo2":-89.0444,"dy":0.0017,"dx":0.0017,"nx":28,"ny":28,"refTime":"2026-02-11T09:00:00:Z","depth":0,"parameterNumber":3,"parameterNumberName":"V-component_of_WINDS"},"data":[0,0,0,0,0,0,0,0,0,0,0,0,0,0,0,0,0,0,0,0,0,0,0,0,0,0,0,0,0,0,0,0,0,0,0,0,0,0,0,0,0,0,0,0,0,0,0,0,0,0,0,0,0,0,0,0,0,0,3.2396,3.2396,0,3.2458,3.2459,3.2459,3.2439,3.2438,3.2436,3.2435,3.2492,3.2495,3.2497,0,0,0,0,0,0,0,0,0,0,0,0,0,3.2253,3.2255,3.2396,3.2396,3.2397,3.2458,3.2459,3.2459,3.2439,3.2438,3.2436,3.2435,3.2491,3.2494,3.2498,0,0,0,0,0,0,0,0,0,0,0,0,0,3.2315,3.2256,3.2396,3.2395,3.2395,3.2458,3.2459,3.246,3.244,3.2438,3.2436,3.2434,3.249,3.2494,3.2498,3.2563,0,0,3.2511,3.2513,0,0,0,0,0,0,0,0,3.2311,3.232,3.2394,3.2395,3.2396,3.2439,3.2429,3.2494,3.244,3.2423,3.2435,3.2433,3.2476,3.2481,3.2496,3.2566,3.2568,3.2511,3.2514,3.2515,3.2517,0,0,0,0,0,0,0,3.2307,3.2317,3.242,3.2395,3.2396,3.2389,3.2395,3.2441,3.2459,3.2424,3.2423,3.2431,3.2475,3.2493,3.2498,3.2569,3.2511,3.2515,3.2517,3.2519,3.2694,3.2696,0,0,0,0,0,0,3.2303,3.2314,3.2418,3.2422,3.2348,3.2393,3.24,3.2427,3.2459,3.2462,3.2432,3.2429,3.2487,3.2493,3.25,3.2578,3.2515,3.2519,3.2522,3.2692,3.2694,3.2697,0,0,0,0,0,0,3.23,3.2313,3.2416,3.2368,3.238,3.2398,3.2427,3.2429,3.2446,3.2465,3.2467,3.2447,3.2485,3.2494,3.2548,3.2579,3.2521,3.2525,3.2689,3.2693,3.2696,3.2734,0,0,0,0,0,0,3.2296,3.2312,3.2338,3.2368,3.2383,3.2465,3.2429,3.2432,3.2454,3.2451,3.2479,3.2482,3.2484,3.2542,3.2552,3.2584,3.2528,3.2686,3.2691,3.2695,3.273,3.2739,3.2746,0,0,0,0,0,3.2291,3.2345,3.234,3.2352,3.2417,3.2467,3.2475,3.2478,3.2457,3.2483,3.2494,3.2481,3.2574,3.2548,3.2559,3.2592,3.2684,3.2689,3.2694,3.2727,3.2737,3.2745,0,0,0,0,0,0,3.2316,3.2349,3.2343,3.2409,3.2436,3.2463,3.2496,3.2489,3.252,3.2516,3.2516,3.2523,3.2578,3.259,3.256,3.2657,3.2626,3.2633,3.2647,3.2657,3.2664,3.266,3.2531,0,0,0,0,0,3.2329,3.237,3.2395,3.2451,3.2465,3.2478,3.25,3.2501,3.2527,3.2537,3.2553,3.2578,3.2612,3.2635,3.2668,3.2732,3.2737,3.276,3.2768,3.2774,3.278,3.2815,3.2825,3.2713,3.2713,3.2713,0,0,3.2356,3.238,3.2405,3.2457,3.2477,3.2517,3.2488,3.2531,3.256,3.2543,3.2596,3.2608,3.2635,3.2695,3.2722,3.2707,3.2813,3.278,3.2785,3.2788,3.2821,3.2832,3.2841,3.2716,3.2716,3.2715,0,0,3.2427,3.2449,3.2498,3.252,3.2552,3.2561,3.2573,3.2602,3.261,3.2664,3.2652,3.2685,3.2745,3.2765,3.2782,3.2861,3.2849,3.2871,3.2911,3.2944,3.2953,3.2961,3.2989,3.2998,3.2877,3.2877,3.2877,0,3.2456,3.2518,3.2523,3.2568,3.2591,3.258,3.2628,3.2648,3.2689,3.2703,3.2687,3.2762,3.2779,3.2843,3.2862,3.2877,3.2889,3.2868,3.2952,3.296,3.2967,3.2993,3.3004,3.288,3.288,3.2879,3.2879,0,3.2553,3.2596,3.2631,3.2673,3.2699,3.2745,3.2755,3.2781,3.2779,3.2789,3.2842,3.2863,3.29,3.2915,3.2913,3.2978,3.2968,3.2952,3.2921,3.298,3.3005,3.3015,3.2883,3.2882,3.2882,3.2881,0,0,3.264,3.2686,3.2698,3.2717,3.2752,3.2784,3.2829,3.2868,3.2889,3.2917,3.2954,3.3005,3.299,3.301,3.301,3.3039,3.31,3.3019,3.302,3.3033,3.3173,3.3185,3.3197,3.3092,3.3094,3.3096,3.317,0,3.2713,3.2795,3.2801,3.2874,3.2913,3.2904,3.2943,3.2967,3.2977,3.301,3.302,3.3057,3.3034,3.3047,3.3075,3.3086,3.3128,3.3081,3.3125,3.3127,3.3119,3.321,3.3223,3.3292,3.318,3.3182,3.3183,0,3.281,3.2844,3.2921,3.2952,3.2968,3.3003,3.3039,3.3071,3.3098,3.3103,3.3126,3.3122,3.3166,3.3133,3.3193,3.3161,3.3179,3.3188,3.319,3.3194,3.3158,3.3216,3.3314,3.3325,3.3198,3.3197,3.3196,0,3.2866,3.293,3.2985,3.3002,3.3038,3.3063,3.3079,3.3104,3.3127,3.3157,3.3171,3.3205,3.3224,3.325,3.3254,3.323,3.3313,3.3282,3.3318,3.3318,3.3336,3.3334,3.3438,3.3347,3.3347,3.3347,3.3347,0,3.2947,3.2994,3.3011,3.3045,3.3097,3.3103,3.3154,3.3168,3.319,3.3225,3.3218,3.325,3.3254,3.3286,3.3289,3.3338,3.3346,3.335,3.3351,3.3351,3.3351,3.3363,3.3358,3.335,3.3349,3.3349,3.3348,0,3.3018,3.3031,3.309,3.312,3.3129,3.3166,3.3191,3.3222,3.3232,3.3276,3.3286,3.3301,3.3339,3.3346,3.339,3.3392,3.345,3.3446,3.3442,3.3442,3.3477,3.3474,3.3592,3.3608,3.3507,3.3508,3.3509,0,3.3068,3.3105,3.314,3.3165,3.3182,3.3221,3.3245,3.3251,3.3276,3.3309,3.3336,3.3374,3.3405,3.3466,3.3479,3.3512,3.3508,3.3547,3.3513,3.3512,3.3508,3.3506,3.351,3.3554,3.3555,3.3556,3.3556,0,3.3157,3.3162,3.3198,3.3237,3.3267,3.3297,3.3325,3.3344,3.3354,3.3382,3.3422,3.3446,3.3492,3.3529,3.3563,3.3577,3.3568,3.3567,3.3578,3.3578,3.3575,3.3577,3.346,3.3565,3.3564,3.3563,3.3563,3.3562,3.3219,3.3252,3.3282,3.3322,3.3345,3.3372,3.3403,3.3418,3.3453,3.3493,3.3493,3.3537,3.3562,3.3607,3.3623,3.3656,3.3643,3.3658,3.3661,3.3665,3.3668,3.357,3.3662,3.3662,3.3661,3.3661,3.3661,0,3.3307,3.3327,3.3364,3.3406,3.3437,3.3429,3.346,3.3486,3.3526,3.3551,3.3582,3.3628,3.3664,3.3681,3.3716,3.3739,3.3736,3.3748,3.3746,3.3749,3.3678,3.3666,3.375,3.375,3.375,3.375,3.375,3.375,3.3357,3.3412,3.342,3.3486,3.3504,3.3549,3.3567,3.3592,3.3612,3.3665,3.3696,3.3707,3.3729,3.3766,3.3798,3.3802,3.3815,3.3829,3.383,3.3763,3.3754,3.3746,3.3734,3.3832,3.3832,3.3899,3.39,3.39]}]]